YAMAL 402

Last updated on Thu Jul 03 2025 00:02:46 GMT+0000 (Coordinated Universal Time)

1 39022U 12070A 25183.59643172 .00000093 00000+0 00000+0 0 9992 2 39022 0.3668 89.7051 0003642 7.2651 93.5066 1.00272466 45890
UTC large
Height (km)
Speed (km/s)
/
Latitude / Longitude
Inclination (degrees)
Orbital Period (minutes)
Azimuth
Elevation
Range (km)
Doppler Factor

Next 0 passes for location: London (51.5072 / 0.1276)

Sorry there are no passes over London.